Theta_e
312 319 323 321 322 324 322 317 314 318 314 308 310 311 310 310 309 308 308 306 304 307 310 308 308 308 308 308 306 301 299 296 296 296 296 296 296 296 296 297 297 297 297 296 293 293 293 292 292 293 293 292 292 291 290 290 290 290 290 290 291 290 290 290 290 291 292 292 292 292 293 293 293 293 293 293 293 293 293 293 293 293 293 293 293 293
316 321 322 324 321 317 318 314 310 311 310 308 309 310 309 308 308 307 307 306 304 307 311 309 309 309 308 308 306 302 299 297 296 296 297 297 296 296 296 296 297 297 296 295 293 292 292 292 293 293 293 292 291 290 290 290 290 290 290 291 291 290 290 290 290 291 291 291 291 291 291 291 291 292 292 292 292 293 293 293 293 293 293 292 292 292
322 323 324 320 311 308 310 310 308 308 308 309 308 309 310 309 310 310 308 308 307 306 310 311 308 308 308 307 306 303 300 299 299 299 299 298 297 297 296 296 296 297 296 294 293 292 292 292 293 293 293 292 291 290 290 290 290 290 290 290 290 290 290 290 291 291 291 291 290 290 290 290 291 291 292 292 292 292 292 292 292 292 292 292 292 292
322 327 322 308 303 307 310 308 308 308 308 310 308 309 312 310 311 312 310 310 309 307 308 309 306 306 306 306 307 304 300 300 301 300 300 299 299 298 297 297 297 296 296 294 293 292 292 292 292 293 293 292 291 290 290 290 290 291 291 291 290 290 290 291 291 291 291 290 290 290 290 290 291 291 291 291 292 292 291 292 292 292 292 291 291 291
320 319 308 302 306 310 311 309 309 309 310 315 312 310 311 311 310 311 310 308 309 310 308 306 308 309 307 306 307 304 300 299 300 299 298 298 298 298 297 296 296 297 296 295 294 292 292 292 292 293 292 291 290 290 290 290 290 291 291 291 291 291 291 290 290 290 290 290 290 290 291 291 291 291 291 291 291 291 291 291 291 291 291 291 290 290
319 310 303 307 311 310 310 312 313 311 312 319 318 311 310 311 310 310 310 308 310 314 308 306 314 317 311 307 307 305 302 301 299 297 297 297 297 297 296 296 296 296 296 296 294 293 293 292 293 293 292 291 290 290 290 290 290 291 290 290 290 291 290 290 290 290 290 290 290 290 290 290 290 290 290 290 290 290 290 290 290 291 291 290 290 290
314 306 307 314 313 311 311 313 316 313 311 316 316 312 311 310 310 310 309 308 313 315 306 305 313 314 310 310 310 309 308 305 301 298 297 296 297 296 296 296 296 296 296 295 293 293 292 292 293 293 292 291 291 290 290 290 290 290 290 290 290 290 290 290 290 290 290 289 289 289 289 289 289 289 289 289 289 290 290 290 290 290 290 290 290 290
310 307 311 313 313 314 312 315 317 311 312 318 313 311 312 309 309 309 306 307 310 309 305 306 308 307 308 309 309 308 308 307 304 301 298 295 296 296 296 295 295 296 296 294 293 292 292 293 293 292 292 291 290 290 290 290 290 290 290 290 290 290 290 290 289 289 289 289 289 289 289 289 289 289 289 289 289 289 289 289 290 290 290 290 289 289
309 312 315 314 313 313 315 321 317 310 314 317 309 307 307 306 307 306 304 306 306 305 307 307 305 307 310 309 306 303 304 307 305 305 303 297 295 296 295 295 295 296 296 294 293 293 293 293 293 292 291 291 290 290 290 290 290 290 290 290 290 290 289 289 289 289 289 289 288 288 288 288 288 288 289 289 289 289 289 289 289 289 289 289 289 288
310 310 311 313 315 314 317 318 311 311 313 309 305 308 309 310 309 306 304 307 308 308 311 309 305 309 314 314 309 304 305 309 307 305 303 299 296 296 295 295 295 295 295 294 293 293 293 293 292 292 291 291 290 290 290 290 290 290 290 290 290 290 289 289 289 289 289 288 288 288 288 288 288 288 288 289 289 289 289 289 289 289 289 289 288 288
308 305 305 309 311 311 313 308 303 307 306 303 307 312 313 314 311 308 307 308 311 314 315 311 306 308 314 314 311 310 311 312 311 309 306 301 297 296 295 295 295 295 294 293 292 292 292 292 292 292 291 291 290 290 290 290 290 290 290 290 290 289 289 289 289 289 288 288 288 288 288 288 288 288 288 289 289 289 289 289 288 288 288 288 287 287
309 307 307 307 306 305 310 308 303 303 302 305 313 315 315 316 315 314 312 311 315 318 316 309 305 306 311 312 310 311 309 308 309 311 311 305 297 295 296 295 294 295 294 293 292 292 292 292 292 291 291 290 290 290 290 290 290 290 290 290 290 289 289 289 289 288 288 288 288 288 288 288 288 288 288 288 288 288 288 288 287 287 287 287 286 286
314 312 308 306 304 304 312 313 307 306 307 309 313 315 317 319 321 321 316 314 318 318 310 304 305 307 308 310 309 309 309 308 305 303 305 303 297 295 296 294 294 294 293 292 292 292 292 291 291 291 291 290 290 290 290 290 290 290 290 290 290 289 289 289 289 289 288 288 288 288 288 288 288 288 288 288 288 287 287 287 286 286 286 286 286 285
320 316 309 308 308 306 310 312 311 313 311 307 310 317 321 320 321 321 318 317 317 316 307 301 305 310 309 311 310 308 309 304 299 297 298 298 297 298 297 295 294 293 292 292 292 292 292 291 291 291 291 290 290 290 290 290 290 290 290 289 289 289 289 289 289 289 289 288 288 288 288 288 288 288 287 287 287 287 286 286 285 285 285 285 285 285
320 319 314 312 311 308 308 309 315 319 311 307 311 315 319 321 322 321 320 319 316 315 310 303 307 314 312 312 308 303 299 294 293 294 294 295 297 299 297 295 293 292 292 292 292 292 291 291 291 291 291 290 290 290 290 290 290 290 290 289 289 289 289 289 289 289 289 288 288 288 288 288 287 287 287 287 287 286 286 286 285 285 285 285 285 285
315 318 315 308 305 305 306 305 307 316 314 307 308 312 316 319 320 318 317 317 312 311 310 306 309 312 309 308 303 297 294 292 291 291 292 294 296 296 295 293 292 292 292 291 291 291 291 291 291 291 291 290 290 290 290 290 290 290 290 289 289 289 289 289 289 289 288 288 288 288 287 287 287 287 287 287 286 286 286 285 285 285 284 284 284 284
314 318 312 303 303 302 301 301 302 309 315 309 307 313 312 310 315 317 315 312 308 310 312 310 310 309 309 308 303 299 299 297 294 291 291 292 293 293 293 292 292 291 291 292 291 291 291 291 291 291 291 290 290 290 290 290 290 290 290 289 289 289 289 289 289 288 288 288 288 287 287 287 287 287 286 286 286 286 286 285 285 284 284 284 284 284
314 316 310 305 309 302 295 298 300 301 307 311 312 311 306 305 310 313 314 311 308 310 312 311 310 309 312 310 303 300 301 301 299 294 289 289 289 290 291 291 291 291 291 291 291 291 291 291 291 291 291 291 291 290 290 290 290 290 289 289 289 289 289 289 288 288 288 288 287 287 287 287 286 286 286 286 286 286 285 285 284 284 284 284 284 284
312 313 311 303 306 303 297 302 306 300 300 307 309 305 305 310 311 309 310 312 312 311 312 313 312 311 314 314 310 307 306 305 303 295 290 291 289 288 289 290 290 290 291 291 291 291 291 291 291 291 291 291 290 290 290 290 290 289 289 289 289 289 289 288 288 288 287 287 287 286 286 286 286 286 286 285 285 285 285 284 284 284 284 284 284 285
311 312 315 303 300 303 301 305 313 308 300 300 301 301 304 309 311 310 309 311 314 313 312 314 314 313 315 317 316 313 309 309 306 297 292 292 289 288 289 289 289 290 291 291 290 291 291 291 291 291 291 290 290 290 290 290 290 289 289 289 289 289 288 288 287 287 287 286 286 286 286 286 286 285 285 285 285 284 284 284 284 284 284 285 285 285
311 312 314 306 300 304 306 307 311 311 305 303 303 303 303 304 307 309 307 307 312 312 311 312 313 313 313 314 315 313 309 309 306 300 294 291 289 290 289 289 290 291 290 290 291 291 291 291 290 291 290 290 290 290 290 290 289 289 289 289 289 288 288 287 287 287 287 287 286 286 286 286 286 285 285 285 284 284 284 283 284 284 285 285 286 285
313 314 314 310 304 306 309 307 305 307 308 306 306 306 305 304 306 309 307 306 308 309 312 313 312 313 310 308 310 311 310 308 303 299 296 291 290 290 290 290 291 290 290 291 291 291 291 290 290 290 290 290 290 290 290 289 289 289 289 289 288 288 287 287 287 287 287 287 287 286 286 285 285 285 285 285 284 284 283 283 284 284 285 286 286 285
311 314 313 312 310 307 306 302 298 300 302 303 305 306 306 305 306 309 310 309 307 306 308 310 310 312 308 305 306 307 307 303 297 295 295 293 291 291 290 290 290 290 291 291 291 291 290 290 290 290 290 290 290 290 289 289 289 289 289 288 288 287 287 287 287 287 287 286 286 286 285 285 285 285 285 284 284 283 283 283 284 285 285 286 286 285
309 312 312 313 314 310 305 302 299 298 299 302 304 304 304 305 306 308 309 310 311 308 307 308 309 311 307 303 303 301 298 295 293 293 294 292 291 291 290 289 290 290 290 291 291 290 290 290 290 289 290 290 290 290 289 289 289 289 288 288 287 287 287 287 287 287 286 286 286 285 285 285 285 285 285 284 284 283 283 283 284 285 285 285 285 283
310 314 313 312 315 314 310 306 305 303 300 301 304 303 303 304 305 306 306 307 309 308 308 308 310 311 307 302 300 299 298 296 293 292 292 292 291 290 290 289 289 290 290 290 290 290 290 290 290 289 289 290 290 289 289 289 289 288 288 287 287 287 287 287 287 287 286 286 286 285 285 285 285 285 285 284 283 282 282 283 284 284 285 285 284 282
312 315 313 311 312 313 311 310 312 309 302 300 303 302 302 303 304 306 306 307 307 308 308 308 310 311 308 304 302 302 302 299 293 291 291 291 291 290 290 289 289 290 290 290 290 290 290 289 289 289 289 290 290 289 289 289 288 288 287 287 287 287 287 287 287 286 286 286 286 285 285 285 285 284 284 284 283 282 282 283 283 284 284 283 283 281
316 315 311 311 312 311 310 310 312 311 306 305 305 302 302 303 303 305 307 308 308 308 308 308 308 309 309 307 306 305 304 300 297 294 291 289 290 290 290 290 289 289 290 290 290 290 289 289 289 289 290 290 289 289 288 288 288 287 287 287 287 287 287 287 286 286 286 286 285 285 285 285 284 284 283 283 282 281 281 282 283 284 284 282 281 281
317 314 310 310 311 310 311 310 310 311 309 309 307 304 302 301 302 304 306 307 307 308 308 309 308 309 309 308 308 308 308 304 299 295 291 290 291 290 290 289 288 289 289 290 290 290 289 289 289 289 290 289 289 288 288 287 287 287 287 287 287 287 287 287 286 286 286 286 285 285 285 284 284 283 283 282 281 281 281 282 283 283 283 282 281 280
313 313 311 311 310 309 310 310 310 311 310 309 309 308 304 301 301 303 304 305 306 307 308 309 309 309 309 309 308 308 309 306 301 296 294 293 291 289 289 288 287 288 289 289 289 290 289 290 290 290 289 289 288 288 287 287 287 287 287 287 287 287 287 286 287 287 286 286 285 285 284 284 283 283 282 281 280 280 281 282 282 282 282 281 280 279
309 311 311 311 310 310 309 309 310 309 308 308 309 309 307 302 301 302 303 304 305 306 307 307 308 308 308 308 308 307 307 305 302 297 294 292 290 289 288 287 287 289 289 289 290 290 290 290 289 289 289 288 288 288 287 287 287 287 287 287 287 287 287 287 287 286 286 286 285 285 284 283 283 282 281 279 279 279 280 281 282 282 282 281 279 277
306 311 312 310 311 311 310 309 310 308 308 308 308 308 308 306 303 302 302 302 303 304 304 304 305 306 306 306 306 305 304 303 300 296 292 290 290 289 288 287 288 289 289 289 290 290 290 290 289 289 288 288 287 287 287 287 287 287 287 286 287 287 287 287 287 286 286 286 285 284 283 282 281 280 279 279 279 279 280 281 281 282 282 281 279 277
306 310 313 311 311 312 311 310 309 307 306 307 308 308 307 307 307 305 305 304 303 303 304 304 305 305 305 306 306 304 303 303 301 296 291 290 291 290 288 288 288 289 289 289 290 290 290 289 289 289 288 287 287 287 287 287 287 287 286 286 287 287 287 287 286 286 286 285 284 283 282 281 279 279 278 278 278 279 280 281 281 281 281 280 278 276
307 309 311 310 311 311 309 307 307 307 308 310 310 310 309 307 307 307 307 306 305 305 305 306 306 306 306 306 307 306 304 302 300 296 292 291 291 289 289 290 290 290 290 290 290 290 290 289 289 288 287 287 287 287 287 287 286 286 287 287 287 287 286 286 286 286 286 285 283 282 280 279 278 278 278 278 278 279 280 281 281 281 280 279 277 275
306 308 309 310 312 311 305 304 306 308 310 312 311 312 312 310 308 307 307 307 307 306 306 306 307 307 307 307 307 307 305 301 298 297 296 296 293 291 290 290 290 290 289 290 290 290 290 289 288 287 287 287 287 287 287 286 286 286 287 287 287 286 286 286 286 286 285 284 282 280 279 278 277 277 277 278 279 280 280 280 281 280 278 277 276 275
306 306 308 310 311 308 303 304 308 310 311 311 310 309 311 311 309 308 307 307 307 306 306 306 307 306 307 307 306 305 304 301 298 297 298 298 297 295 293 291 290 290 289 290 290 290 289 288 287 287 287 287 287 287 286 286 286 286 287 287 286 286 286 286 286 285 284 282 281 279 278 277 276 277 277 278 279 280 280 280 279 278 277 275 274 272
306 305 307 310 309 306 304 307 310 311 310 310 309 306 305 306 305 305 306 306 305 305 305 305 305 306 305 305 304 303 301 299 296 295 296 297 297 296 295 294 292 291 291 291 291 290 289 288 287 287 286 286 287 286 286 286 286 287 287 286 286 286 286 286 285 284 283 281 280 278 277 276 276 277 278 279 279 279 280 279 278 277 276 274 271 269
307 307 307 308 308 308 309 309 310 310 310 311 310 307 304 305 304 305 307 308 306 305 304 304 304 304 304 303 301 298 296 295 294 294 295 296 295 294 294 295 294 293 292 291 290 289 288 287 286 286 286 286 286 286 286 286 286 287 287 286 286 286 286 286 285 283 281 280 278 277 276 276 276 277 278 279 279 279 279 278 277 275 273 272 271 269
306 308 308 309 309 310 310 310 311 312 311 311 310 308 305 304 303 304 306 306 306 305 303 303 304 303 303 303 297 292 294 296 297 296 296 295 293 292 292 292 293 292 291 290 289 288 287 286 286 286 286 286 286 286 286 286 286 286 286 286 286 286 286 285 284 281 280 278 277 276 276 276 276 277 278 278 278 278 278 277 276 274 271 270 270 269
303 305 307 309 310 310 310 311 312 312 313 312 308 304 301 299 300 303 305 305 307 306 302 302 304 303 302 300 294 292 296 299 299 298 297 295 294 293 291 291 291 291 290 289 288 287 287 286 286 286 286 286 286 286 286 286 286 286 286 286 286 286 285 284 282 280 279 278 276 276 276 276 277 277 278 278 277 277 277 276 274 273 271 270 269 268
302 304 305 307 309 310 310 311 311 311 312 310 305 299 296 297 301 306 308 308 309 308 302 300 303 303 299 294 291 294 298 299 299 299 297 296 294 292 292 291 291 290 289 288 287 287 286 286 286 286 286 286 286 286 286 286 286 286 286 285 285 285 284 282 280 279 278 277 275 275 276 276 277 277 277 277 277 276 276 275 273 273 271 270 269 268
302 304 304 306 308 309 310 311 311 310 311 307 300 295 296 299 304 309 310 309 308 307 301 298 300 300 295 291 291 295 297 297 297 297 296 295 293 291 291 291 291 290 289 288 287 286 286 286 286 286 286 286 286 286 286 286 286 286 285 285 285 285 283 281 279 278 277 276 275 275 276 276 276 277 277 276 276 276 275 274 273 272 270 269 269 268
304 303 304 305 307 308 309 311 310 311 311 303 296 295 298 303 307 308 306 305 305 303 299 297 298 298 295 293 293 295 296 295 295 295 295 294 293 291 290 290 289 289 288 287 286 286 286 286 286 285 285 286 286 286 286 286 286 285 285 285 285 284 282 279 278 277 276 275 275 275 276 276 276 277 277 276 275 275 275 274 272 271 269 268 268 267
306 305 304 305 307 307 308 308 309 311 307 299 296 297 299 304 309 306 303 302 303 302 300 298 297 298 297 294 293 294 294 294 294 294 294 293 292 291 290 290 289 289 288 287 286 286 285 285 285 285 285 286 286 286 286 286 285 285 285 285 285 283 280 278 277 276 275 275 275 275 276 276 276 276 276 275 274 274 275 274 272 271 269 268 266 265
308 307 306 306 307 308 307 307 310 310 303 297 299 301 300 303 307 306 304 303 301 300 300 298 297 298 298 296 295 294 293 293 293 293 293 292 291 291 290 289 289 289 288 287 286 285 285 285 285 285 285 286 286 286 286 286 285 285 285 285 283 281 278 277 276 275 275 275 275 275 275 276 276 276 276 275 274 274 274 273 272 271 269 267 265 264
310 309 309 309 307 308 309 309 308 306 299 297 302 305 302 302 304 304 305 304 300 299 300 298 298 299 298 297 295 294 293 293 293 292 293 292 291 290 290 289 289 288 287 286 285 285 285 284 285 285 286 286 286 286 286 286 285 285 285 284 282 279 277 276 275 274 274 275 275 275 275 276 276 276 275 275 274 273 273 273 271 270 268 266 265 264
310 309 309 310 308 307 308 307 306 304 299 297 301 303 303 302 302 302 302 302 301 301 301 300 300 300 298 296 295 293 293 293 292 292 292 292 291 290 290 289 288 288 287 286 285 285 285 284 285 285 286 286 286 286 286 285 285 285 285 283 280 278 276 275 274 274 274 274 274 275 275 275 276 275 275 275 274 273 272 272 271 269 267 265 265 265
309 307 307 309 309 308 309 309 308 306 303 299 298 300 301 301 301 300 301 301 301 301 301 301 300 299 298 297 296 294 293 293 292 291 291 291 291 290 290 289 288 287 286 286 285 285 284 285 285 285 285 285 285 285 285 285 285 285 283 281 279 277 275 274 274 274 274 274 274 274 275 275 275 275 275 275 275 273 272 272 272 270 267 265 265 266
309 306 305 307 308 309 310 312 309 306 305 303 300 299 300 301 300 300 301 301 301 301 301 301 299 298 298 297 296 295 293 292 292 291 291 290 291 290 290 289 288 287 286 285 284 284 284 285 285 285 285 285 285 285 285 285 285 284 282 280 277 276 274 274 273 274 274 274 274 274 275 275 275 274 274 274 274 274 272 271 271 271 269 267 266 266
308 307 307 307 307 308 309 311 308 305 305 305 303 301 302 302 301 301 301 300 300 299 299 299 299 298 298 298 296 295 292 291 291 292 291 291 291 290 289 288 287 287 286 285 284 284 284 285 285 285 285 285 285 285 285 284 284 282 280 278 276 275 274 273 273 273 273 273 274 274 274 275 274 274 274 273 274 274 273 271 271 270 270 269 267 267
307 309 309 308 308 308 309 309 309 308 308 307 305 303 303 302 301 300 299 298 299 299 299 298 298 297 297 298 296 294 293 292 291 291 291 291 291 290 290 288 287 286 286 285 284 284 284 284 285 285 285 285 285 285 284 284 283 281 279 277 275 274 273 273 273 273 273 273 273 273 274 274 274 274 273 273 273 273 273 273 272 270 270 270 269 268
309 311 310 308 309 310 309 309 309 309 309 309 308 306 304 303 301 299 299 299 299 299 298 298 297 296 295 295 295 294 293 292 291 291 291 291 291 290 290 289 288 287 286 285 284 284 284 284 284 285 285 285 284 284 284 283 281 279 277 275 274 273 273 272 273 273 272 272 273 273 273 273 273 273 273 273 272 272 272 274 274 273 271 271 271 270
Wind_Speed
3 3 2 5 6 7 7 6 6 5 6 3 2 3 5 5 7 7 5 3 2 2 8 8 9 13 16 15 13 17 22 22 23 24 25 27 30 34 36 36 35 33 30 26 25 22 18 16 13 11 11 9 7 5 5 5 7 9 12 15 18 20 22 23 24 27 30 31 31 30 30 30 29 29 30 30 31 30 30 29 29 31 33 35 37 38
4 2 5 8 9 7 6 5 5 4 4 2 2 4 5 5 8 9 4 4 0 3 6 5 7 12 15 16 14 12 13 17 25 26 27 30 33 35 36 37 37 34 29 28 28 25 20 18 15 13 12 9 7 5 5 5 7 10 13 16 19 21 22 24 26 28 29 29 29 30 30 30 29 29 30 30 29 29 29 29 30 31 33 35 37 40
3 3 9 8 6 5 3 5 6 3 3 2 2 2 5 4 5 8 4 4 2 2 5 6 7 12 14 16 16 13 15 21 31 34 34 34 34 36 37 37 38 35 32 32 31 26 22 19 16 15 13 10 8 6 5 6 8 11 14 17 19 21 22 24 27 27 28 28 28 28 29 30 30 29 29 30 29 30 31 32 33 35 37 39 40 41
2 6 7 4 8 8 4 3 5 2 1 3 3 2 5 4 1 5 4 5 4 2 6 9 11 11 11 15 18 15 19 22 28 33 35 34 35 38 39 38 39 39 37 35 32 28 23 20 17 16 14 10 9 7 6 6 9 12 15 18 19 21 23 25 26 27 27 27 27 28 28 29 29 30 30 31 31 32 34 35 36 39 40 42 43 43
6 6 3 7 6 7 3 1 4 2 3 4 5 6 6 6 5 6 3 5 5 3 4 8 11 9 7 12 15 7 8 15 19 23 27 33 36 34 33 36 39 40 39 36 33 29 24 21 19 17 14 11 9 8 7 7 10 12 15 18 20 22 23 24 25 26 27 27 28 29 29 30 30 31 31 33 34 35 37 38 39 40 41 44 46 46
7 3 5 6 3 4 5 3 4 7 3 5 5 9 10 8 7 6 5 6 5 4 4 6 7 7 2 6 11 5 2 9 11 14 22 30 32 31 32 34 37 38 37 36 33 29 24 21 20 18 15 12 10 8 8 8 10 13 15 18 19 21 21 23 24 25 26 27 28 30 31 31 32 32 33 34 36 38 39 40 41 41 42 44 46 46
3 0 3 6 5 5 4 5 6 7 4 3 4 7 7 5 4 4 4 4 2 3 2 4 2 9 3 3 10 8 6 9 8 10 18 25 27 31 36 35 36 38 37 35 31 27 24 22 21 18 15 12 10 8 8 9 10 12 15 17 18 19 21 22 23 24 26 27 28 29 30 31 32 33 34 34 36 38 40 42 43 44 44 45 47 47
3 3 4 5 5 5 4 5 6 8 7 3 4 5 5 2 2 2 2 0 3 3 3 3 4 9 9 5 7 5 6 11 11 12 15 20 27 33 36 34 35 39 38 36 32 27 25 23 21 17 15 12 9 8 8 8 10 12 14 16 17 19 20 21 22 23 25 26 27 28 30 30 31 33 34 35 37 39 41 43 44 45 46 46 47 48
3 5 5 5 4 4 6 6 8 11 5 5 4 6 5 3 2 2 2 2 2 3 5 4 7 5 10 6 2 4 4 11 14 16 15 16 27 33 32 33 35 37 38 36 33 29 26 24 21 17 15 12 9 8 8 8 10 12 14 15 16 18 19 20 21 22 23 25 27 28 30 31 32 33 35 37 39 40 42 44 45 46 47 47 47 48
1 3 6 8 5 6 6 3 7 10 4 3 5 5 4 4 3 3 2 1 2 3 9 6 8 4 9 4 2 3 3 9 12 14 12 14 25 30 29 32 35 36 37 35 32 29 27 24 21 18 15 11 8 7 7 8 10 12 14 15 16 17 18 20 21 22 23 25 27 29 30 32 33 35 37 39 40 42 43 45 47 47 48 48 49 49
2 2 0 4 5 5 5 2 1 4 3 4 6 4 4 4 4 4 2 3 3 5 9 7 12 8 7 3 5 3 5 7 8 9 9 11 19 25 29 33 35 37 38 36 32 28 26 23 20 18 14 10 8 7 8 8 10 12 14 15 16 16 18 20 20 22 24 25 27 29 30 32 34 36 38 40 42 43 45 47 48 49 49 50 50 51
4 1 2 2 3 5 7 5 2 3 3 4 4 4 4 4 3 4 4 4 1 6 6 3 8 9 8 5 4 5 5 5 7 7 8 9 13 21 29 32 35 37 38 36 32 29 27 24 20 17 13 10 8 7 8 9 10 12 14 16 17 16 18 20 21 22 24 26 27 29 31 33 34 37 38 41 43 44 45 47 48 49 50 51 51 52
3 4 3 2 1 5 5 4 2 4 4 4 4 4 3 4 4 4 3 1 3 7 3 2 3 5 12 10 8 10 10 9 8 9 12 10 10 18 27 31 34 37 37 35 32 30 27 24 20 16 12 10 8 8 8 9 11 13 14 16 17 17 18 20 21 23 24 26 28 29 31 33 35 37 38 40 42 43 44 46 48 49 51 52 53 52
4 4 1 0 3 7 9 5 2 2 1 5 4 4 3 1 1 4 4 2 5 6 3 4 4 5 9 7 11 15 13 12 9 12 18 16 14 17 23 29 33 36 37 35 33 30 27 23 19 16 12 10 8 8 8 10 12 14 15 16 17 17 18 20 22 23 25 26 28 30 32 34 36 37 39 40 41 42 43 45 47 49 50 52 53 52
3 6 3 5 2 6 10 5 5 5 4 4 4 4 4 4 3 4 4 4 6 7 4 3 3 4 5 2 7 9 9 8 9 13 16 16 16 17 20 28 33 36 37 35 32 30 27 23 19 16 12 10 8 8 9 11 13 15 16 16 17 18 18 21 22 24 26 27 29 31 33 34 36 37 39 40 41 42 44 45 47 48 48 50 51 52
3 7 5 2 1 5 5 2 4 6 2 1 2 4 2 4 5 3 3 4 1 6 6 3 4 6 4 3 5 2 6 6 6 9 9 9 12 15 20 28 33 37 37 35 33 30 27 23 19 15 12 9 9 9 10 12 14 15 16 16 17 18 19 21 23 24 26 28 30 32 33 35 36 37 39 40 42 42 44 46 47 48 48 48 49 50
1 6 4 2 2 2 1 2 1 2 2 2 2 3 4 4 5 2 4 2 4 3 6 2 6 9 5 4 4 1 5 6 5 6 5 7 11 16 23 29 33 38 38 36 34 30 26 22 18 15 12 9 9 10 11 13 14 15 16 17 17 18 20 21 23 25 27 29 31 32 33 35 36 38 40 41 43 44 45 46 47 48 48 47 47 48
3 5 3 2 1 1 2 2 2 2 3 4 3 5 4 2 4 4 1 3 3 3 6 3 9 14 10 6 1 1 5 9 8 5 4 6 11 17 23 28 33 37 37 35 32 28 25 21 18 15 11 10 10 11 12 12 14 15 16 17 18 19 20 21 23 25 27 29 31 32 34 35 37 39 40 42 44 45 46 47 46 47 47 46 46 47
3 3 4 1 2 3 3 1 1 3 3 5 3 2 2 3 1 2 2 2 1 3 7 6 9 14 12 5 2 3 7 10 9 6 5 7 13 19 23 28 32 35 35 34 32 28 25 21 18 15 11 11 11 11 11 11 13 14 15 16 17 18 19 21 23 25 27 29 31 33 35 36 38 40 41 43 44 45 46 46 45 45 45 46 45 45
3 2 4 1 2 2 3 1 4 2 2 3 1 1 1 3 3 3 3 3 3 3 7 7 9 14 9 5 6 8 9 10 9 8 8 11 17 23 26 29 33 36 37 36 32 28 24 20 18 15 12 11 11 10 11 11 12 13 15 15 16 18 19 21 24 26 27 29 31 33 36 37 39 40 42 43 44 45 45 44 44 44 44 45 45 44
3 2 4 2 2 1 3 4 7 9 5 3 2 2 1 1 1 1 2 2 3 4 5 4 9 15 7 6 7 8 8 10 11 10 9 13 22 27 28 31 35 39 39 36 31 26 23 20 17 14 13 11 10 10 10 10 12 13 14 15 16 18 20 22 23 25 28 30 33 35 37 39 40 42 43 44 44 44 44 43 44 44 44 45 44 44
3 3 3 2 1 4 6 4 4 7 6 6 6 7 7 6 3 2 5 3 3 4 5 2 7 18 8 4 5 6 6 8 9 9 9 15 24 28 30 34 37 40 39 35 29 26 23 20 16 15 13 11 9 9 9 10 11 12 13 14 16 18 20 22 24 26 29 32 34 36 38 40 42 43 44 45 45 44 43 43 43 44 45 45 45 44
4 3 3 3 5 6 6 3 1 2 1 2 4 5 6 6 6 6 8 4 2 4 4 3 6 17 7 4 3 5 5 6 6 9 11 16 25 28 31 34 36 39 38 32 28 26 22 19 17 15 13 10 9 8 8 9 10 11 13 15 16 18 19 22 25 28 30 33 35 37 39 41 43 44 45 45 45 44 42 42 43 43 45 46 45 44
4 2 3 4 4 2 4 4 1 2 3 2 5 4 6 7 8 7 6 2 2 5 4 3 10 16 4 3 2 3 4 5 5 13 16 16 20 25 30 34 36 38 35 31 28 25 22 20 18 15 13 10 9 9 8 8 9 11 13 14 15 17 19 22 25 28 31 34 36 38 40 42 43 44 45 45 45 44 43 42 44 45 45 46 46 45
6 2 3 4 5 4 4 3 2 3 1 4 5 5 8 11 7 2 0 1 3 10 9 6 14 17 5 2 2 3 4 5 6 14 18 17 19 24 30 33 36 36 34 31 29 26 23 21 19 15 13 11 10 9 8 9 10 11 12 13 15 17 19 22 26 29 32 34 37 39 41 42 44 45 45 46 45 44 44 43 44 45 45 46 46 44
9 3 6 7 8 8 7 5 4 3 3 3 3 6 10 13 12 6 2 4 10 12 10 10 16 19 12 3 0 5 7 6 7 12 17 19 21 24 29 33 36 37 35 33 31 28 25 22 19 16 13 11 10 9 9 9 9 9 10 12 15 17 20 23 26 29 32 35 38 40 42 43 44 45 45 46 46 45 45 45 45 46 45 45 45 44
5 2 9 12 12 13 14 12 6 6 5 5 7 11 14 15 16 11 6 9 12 7 7 17 20 20 25 17 7 11 13 9 9 11 13 19 22 25 30 34 37 39 37 35 31 28 26 22 19 16 14 12 10 9 9 8 8 9 10 12 15 18 21 24 26 30 33 36 39 41 43 44 45 46 46 46 47 46 46 46 46 47 46 45 45 44
3 4 13 15 17 18 18 17 9 8 8 11 10 13 15 14 14 13 14 18 14 4 9 24 21 18 30 27 16 18 18 11 9 11 15 21 25 28 31 33 35 37 37 35 33 31 27 23 19 17 14 11 10 9 9 8 7 8 10 12 15 18 21 24 27 31 34 37 40 41 43 45 45 46 47 47 48 47 47 47 47 47 46 45 44 43
3 8 15 13 17 19 18 18 12 8 9 10 11 14 14 13 16 20 24 24 16 11 18 27 22 22 29 26 19 21 16 10 14 17 20 24 24 27 29 30 34 37 39 38 36 33 28 23 20 16 13 12 10 9 9 7 7 8 10 13 16 19 22 26 29 33 35 38 40 42 43 45 46 46 47 48 49 49 49 48 48 47 46 45 44 42
4 9 14 11 13 17 17 17 13 10 9 9 17 20 13 14 20 24 25 22 19 21 26 27 26 29 29 22 21 24 19 15 19 19 19 21 22 27 31 32 36 40 42 41 38 33 27 22 19 16 13 12 11 10 8 7 8 9 11 14 17 20 24 28 31 34 37 39 41 43 44 45 46 47 47 49 49 50 50 49 48 48 47 45 43 41
5 8 7 4 7 14 16 12 8 7 7 10 21 24 15 14 18 20 20 18 17 21 27 26 25 26 26 21 21 24 22 17 15 14 17 21 25 30 33 34 38 42 42 41 37 31 26 22 19 16 14 13 12 10 8 7 8 9 11 14 18 22 25 29 32 35 38 41 43 44 45 46 47 47 48 49 49 49 50 49 49 48 47 46 43 40
5 4 1 3 6 13 9 2 2 1 3 8 23 29 21 16 17 19 18 16 17 20 22 22 19 19 22 21 17 16 14 12 12 13 17 23 29 33 34 36 41 43 42 41 37 31 26 22 19 16 15 14 12 10 8 7 8 10 12 15 20 24 27 30 33 37 40 42 44 45 46 46 47 47 48 48 49 50 50 49 48 48 46 45 43 41
6 5 3 4 8 10 1 5 4 6 4 11 21 23 21 18 19 21 19 18 22 20 15 16 18 19 21 18 15 13 11 10 13 17 21 25 30 35 37 40 43 43 42 41 36 31 26 22 19 17 16 14 12 10 8 7 8 10 14 18 21 25 28 31 35 38 41 43 44 45 46 45 46 47 47 48 49 49 49 48 47 46 46 45 43 42
6 8 6 5 6 5 1 5 5 2 8 14 9 7 12 17 21 23 22 24 25 18 15 19 21 21 21 17 15 16 14 14 19 25 29 30 32 35 38 41 41 40 40 39 34 30 25 21 19 18 17 15 12 9 8 7 9 12 16 20 23 26 29 33 36 39 42 44 44 44 44 44 46 46 47 48 48 48 47 47 46 45 44 44 43 43
9 9 5 4 3 1 2 4 1 9 14 9 3 3 9 13 15 18 20 26 26 18 18 23 24 25 25 20 18 21 21 23 25 27 30 33 35 37 39 40 40 39 39 37 34 29 25 22 21 19 17 14 11 9 8 8 10 14 17 21 24 27 30 34 37 40 43 44 44 43 43 44 45 45 46 46 47 47 46 45 44 44 44 44 44 44
10 8 4 3 3 2 2 5 10 12 9 12 11 5 4 2 3 5 12 23 23 15 17 23 24 26 25 21 23 25 22 21 20 21 27 32 35 38 39 40 41 41 40 37 34 29 25 23 21 19 17 14 10 9 8 9 11 15 18 21 24 27 31 35 38 41 42 43 42 41 42 43 44 44 45 46 46 46 44 43 43 43 44 44 45 44
9 8 5 5 5 6 8 10 11 9 12 21 21 8 8 6 7 7 10 21 19 14 17 21 22 23 23 20 19 16 9 7 9 15 26 33 35 38 39 37 37 38 38 34 29 26 24 23 21 19 16 13 10 9 8 10 13 16 19 22 25 28 32 36 39 41 41 40 40 40 41 42 43 44 44 45 45 44 43 43 43 43 43 44 45 45
9 8 8 9 8 8 9 9 10 8 12 21 14 6 10 11 10 9 6 15 19 13 16 17 18 21 20 14 7 6 6 2 6 11 24 33 34 35 35 33 32 33 33 32 29 27 25 24 22 18 15 13 11 9 9 11 14 17 20 23 26 30 34 37 39 40 39 38 38 39 40 40 41 43 43 44 43 43 42 42 43 43 43 43 44 44
7 4 6 8 8 8 8 9 11 10 15 18 7 5 8 13 13 8 2 10 21 14 14 16 18 19 15 7 10 11 6 4 7 12 22 29 32 34 34 31 29 29 31 31 29 27 25 23 21 18 15 12 10 8 10 12 15 18 21 24 28 31 35 37 38 38 37 36 37 38 39 39 40 40 42 42 41 41 41 42 42 43 42 42 42 43
7 5 5 7 10 11 11 11 10 7 12 13 5 7 11 20 18 7 2 11 14 7 14 18 16 16 11 11 13 10 7 9 9 12 19 22 26 32 33 30 31 32 33 32 28 26 24 22 20 18 14 11 9 9 11 13 16 18 22 25 28 32 35 37 36 35 34 35 36 36 37 38 38 39 39 40 40 39 39 40 41 42 42 42 41 41
5 6 6 9 13 15 14 13 9 7 12 10 8 15 17 17 11 4 12 12 4 3 13 18 16 15 16 18 15 11 15 18 13 10 12 17 24 31 31 30 32 33 33 32 29 26 25 22 19 17 13 10 9 10 11 13 16 19 22 26 29 32 35 34 33 32 32 33 34 35 35 35 36 37 37 37 38 38 38 38 40 41 42 42 40 39
5 4 5 9 11 11 12 12 7 9 11 9 17 22 21 12 4 11 9 4 5 8 13 18 19 20 22 26 25 21 21 22 17 12 12 17 26 33 34 33 35 34 32 31 28 26 24 22 19 16 12 10 9 10 12 13 16 20 23 27 30 33 33 32 31 30 31 32 33 33 34 34 34 35 36 36 36 37 37 38 39 41 41 40 40 39
9 5 5 8 7 5 6 8 7 10 8 20 22 14 11 9 15 14 6 4 8 14 17 20 23 24 26 29 29 25 20 19 18 17 17 22 29 35 37 37 36 35 34 31 28 26 24 21 17 14 11 10 9 10 12 13 17 21 24 27 30 32 30 28 28 29 29 31 31 32 32 33 33 34 34 35 35 35 37 39 40 41 41 39 40 39
8 7 6 7 7 6 6 10 11 9 11 30 26 11 16 29 33 21 11 9 11 15 21 23 24 28 30 30 28 26 22 20 20 21 22 28 34 37 37 37 36 35 33 30 27 25 23 19 17 14 11 10 9 10 12 14 18 21 24 28 30 29 27 26 25 26 28 29 30 31 31 32 32 32 33 34 35 35 37 40 41 42 41 40 39 39
13 15 10 7 9 10 9 12 11 5 14 32 32 21 25 44 46 28 16 16 16 19 24 25 25 29 30 29 28 28 27 25 25 25 27 32 36 38 38 37 37 35 32 28 26 24 21 19 16 14 11 10 9 10 12 15 18 21 25 28 28 26 25 24 24 25 26 28 29 30 31 31 31 31 32 33 34 35 36 40 42 42 41 40 39 39
11 10 5 3 6 8 10 15 11 4 10 27 38 30 23 31 38 31 23 21 21 23 25 27 29 30 29 29 30 30 30 30 28 29 30 32 36 38 38 37 36 33 30 28 26 24 21 19 17 14 12 10 9 10 12 16 19 22 25 27 25 23 23 23 23 24 25 27 28 29 30 30 30 31 31 32 34 34 35 37 40 41 40 38 38 39
5 6 5 5 6 6 11 19 18 15 17 25 31 29 24 24 30 33 33 31 28 27 27 28 29 28 28 31 32 32 33 33 32 32 34 35 37 39 38 37 36 33 30 28 26 24 22 19 17 14 11 9 8 10 13 16 19 22 24 24 22 20 20 21 22 23 24 26 27 28 29 30 31 31 31 32 34 36 35 35 38 39 39 37 37 40
8 11 8 9 11 10 15 21 15 15 25 32 29 29 31 33 33 33 36 38 35 30 28 29 29 28 30 33 34 34 34 35 35 36 37 37 38 38 38 38 36 33 30 28 26 23 22 19 16 13 10 8 8 10 13 16 19 21 22 22 19 18 18 19 20 22 23 25 26 27 28 29 30 31 31 31 33 35 36 37 37 38 37 35 34 38
8 10 10 11 13 12 17 22 11 3 15 27 31 37 44 45 42 39 37 37 35 32 30 30 31 32 32 32 34 35 35 37 38 38 38 38 38 38 39 38 36 33 30 28 26 24 21 19 16 13 10 8 9 11 13 16 18 20 20 18 17 16 16 17 18 20 22 24 25 26 27 28 29 30 31 31 31 32 34 35 36 37 36 34 31 31
9 11 10 9 9 11 15 23 21 11 11 20 30 43 52 48 41 39 38 36 36 37 36 35 34 33 32 32 35 37 38 38 39 39 38 38 37 37 38 38 36 33 30 28 26 24 22 19 16 13 10 9 9 11 13 15 18 18 17 16 15 15 15 16 17 19 21 23 24 25 27 28 28 28 29 31 32 32 32 32 32 33 35 34 32 29
16 19 14 11 15 19 22 29 29 18 14 24 32 39 47 46 39 37 40 43 44 43 40 39 38 37 34 34 36 39 39 39 40 40 38 37 37 37 37 37 35 33 30 28 27 25 22 19 16 13 11 10 9 10 12 15 16 16 14 13 13 14 14 15 17 19 21 22 23 25 26 27 28 28 29 29 31 33 34 33 32 31 32 33 33 33
Wind_Direction
72 48 318 255 246 243 235 193 174 171 157 167 179 219 247 251 272 273 255 262 159 216 262 235 233 259 266 269 256 227 216 218 228 233 230 225 221 217 215 214 212 214 215 211 210 212 213 217 222 236 256 276 295 305 322 342 349 348 347 346 344 342 339 336 334 334 334 333 332 332 332 332 333 332 328 325 324 323 324 324 324 324 324 326 327 328
76 62 261 238 222 219 217 171 132 114 135 158 194 241 270 232 257 277 280 310 117 180 267 243 234 257 258 268 264 217 202 220 223 225 228 225 224 222 219 217 215 215 213 209 210 212 213 218 223 234 250 269 280 284 301 328 344 344 344 344 343 342 339 336 335 335 334 333 333 334 334 334 333 331 328 325 325 325 325 325 324 325 325 326 328 330
24 261 256 238 183 133 95 116 122 129 146 158 173 206 279 247 266 291 306 340 4 171 271 276 261 260 257 266 264 217 202 227 226 225 228 225 223 224 221 218 216 214 210 208 210 211 213 218 222 232 245 259 266 274 295 321 338 340 342 344 343 342 339 337 335 334 333 332 332 332 332 331 329 328 326 324 325 325 326 327 327 327 328 327 328 329
301 249 248 190 141 126 80 84 115 103 160 183 179 192 264 270 296 284 302 341 326 235 268 288 278 263 253 258 264 239 219 233 236 233 234 230 229 228 225 222 217 213 210 208 209 211 213 215 220 231 242 253 262 272 291 313 329 335 340 343 342 341 338 336 334 332 331 329 328 328 326 326 324 324 323 322 324 325 326 327 327 327 326 326 327 327
246 244 160 114 124 144 140 115 142 174 276 246 205 202 241 264 243 238 290 339 322 307 313 319 298 269 230 239 259 262 227 242 243 237 237 234 234 234 230 226 221 216 213 211 210 211 213 214 219 230 238 248 260 270 287 307 324 334 340 341 341 340 337 335 332 330 329 327 325 323 320 320 319 319 320 320 321 322 324 323 323 323 323 324 326 327
260 245 148 127 100 134 157 225 203 183 241 297 230 209 226 247 254 265 324 352 346 328 342 8 323 278 189 220 255 283 276 255 242 234 239 235 233 232 230 227 221 218 216 215 214 213 212 214 219 228 235 244 259 272 289 307 324 334 339 340 339 338 335 333 331 329 327 325 323 321 320 320 320 320 321 320 320 321 322 322 322 322 322 323 324 325
255 94 118 137 138 137 167 241 234 172 149 301 242 197 205 220 263 288 344 5 299 265 290 63 323 274 276 188 247 259 260 262 249 236 242 237 231 229 228 226 220 216 215 213 213 212 210 213 220 228 234 244 260 275 289 309 324 332 337 338 336 335 333 331 330 328 326 324 322 321 320 321 322 322 322 322 322 322 322 322 322 322 322 322 322 323
161 105 62 102 124 136 178 240 228 160 139 243 228 134 129 146 236 239 87 357 247 271 279 160 168 274 281 239 248 267 261 270 268 254 248 235 230 230 227 225 220 216 214 210 209 209 209 215 221 228 234 244 260 275 290 309 321 326 332 333 332 332 331 329 328 327 325 322 320 320 319 319 320 320 320 321 321 322 322 321 320 321 321 321 322 322
150 165 186 153 129 175 204 225 192 160 161 243 195 113 103 118 164 143 100 264 290 354 289 204 148 265 278 249 295 360 262 264 267 259 255 234 229 230 226 223 220 216 213 211 211 211 212 216 221 227 234 245 261 275 291 306 315 321 325 328 330 328 326 326 325 324 323 321 320 319 319 318 319 319 319 320 320 321 321 319 319 319 319 320 321 321
123 191 198 157 156 213 216 226 181 168 194 208 131 92 61 65 68 67 64 338 31 330 271 228 155 222 275 233 138 32 247 248 257 257 259 243 233 230 224 221 219 214 211 211 213 212 214 216 220 225 231 245 264 274 289 302 309 315 319 322 326 324 321 322 322 323 323 321 320 319 319 318 319 319 319 319 319 320 319 319 318 318 319 320 320 321
334 42 173 166 188 192 148 96 146 152 152 120 94 52 23 31 46 48 43 62 49 279 270 231 174 188 276 250 161 183 216 219 239 258 266 251 234 225 221 220 216 211 209 209 209 209 212 216 219 224 231 244 261 271 285 297 304 311 314 317 320 320 318 319 321 322 322 322 321 319 319 319 319 320 320 320 319 320 319 318 318 319 319 319 321 321
338 20 249 244 193 133 101 78 45 51 85 97 75 47 8 336 13 20 355 46 56 257 273 239 176 186 243 249 188 229 252 225 226 253 262 250 229 218 218 219 214 210 208 207 207 208 210 215 219 223 231 243 255 267 281 291 298 306 310 312 317 320 317 318 320 321 321 321 320 319 319 319 320 321 321 321 320 320 320 319 319 319 319 319 320 321
308 234 253 326 219 162 118 79 24 1 41 89 88 77 38 334 354 346 307 55 226 244 250 122 136 216 244 247 241 246 257 251 232 233 249 256 237 220 217 215 212 208 206 205 206 208 211 215 218 222 231 242 252 266 277 289 297 303 308 310 316 319 317 317 318 318 319 319 318 318 318 319 320 321 321 321 320 320 320 319 319 318 318 319 319 319
295 294 316 85 267 194 165 150 202 266 136 148 145 128 131 109 339 282 267 269 270 266 233 128 110 271 271 262 237 235 245 257 257 249 255 261 251 235 224 215 210 206 205 206 207 208 211 213 216 222 232 241 254 270 281 291 297 302 307 310 314 317 315 314 315 315 316 316 317 317 318 320 321 321 321 321 320 320 320 318 317 317 316 316 317 317
244 296 216 179 235 185 182 184 165 145 138 177 163 137 151 152 184 239 239 250 287 302 271 158 136 250 270 261 216 234 262 274 281 272 268 265 252 241 226 212 206 204 204 206 207 208 210 212 216 224 234 245 260 275 286 294 298 302 306 309 312 315 314 313 313 315 315 316 317 318 320 321 322 321 321 320 320 320 319 317 316 315 315 315 315 315
206 268 252 243 348 157 183 222 128 117 111 214 131 113 176 183 172 207 239 220 295 318 283 205 207 229 236 233 198 239 297 281 287 284 271 251 230 218 210 205 203 203 203 204 206 208 209 211 218 227 237 249 265 279 289 295 298 302 306 310 313 314 314 314 315 316 317 318 319 320 321 322 322 322 320 319 320 319 318 317 316 315 315 314 314 314
188 273 286 3 360 112 123 293 126 130 176 168 130 179 216 183 135 143 283 334 70 295 274 262 268 275 307 286 202 153 299 274 282 280 237 212 204 201 204 203 202 202 203 204 206 207 209 212 219 229 238 250 268 282 290 296 299 304 309 312 315 315 316 318 318 318 319 320 321 321 322 323 322 322 321 319 319 319 319 318 317 316 315 315 315 314
189 269 277 116 203 281 12 326 354 33 120 128 178 215 197 133 96 108 275 343 46 260 271 288 280 283 297 296 259 29 274 258 257 242 207 206 201 204 208 204 202 202 202 205 207 208 210 214 221 228 239 255 269 282 289 295 300 306 312 315 317 319 319 321 320 320 321 321 323 323 324 325 324 323 321 320 320 320 320 319 318 316 316 316 317 315
157 255 283 109 214 279 11 27 307 5 76 125 186 214 126 147 155 101 160 244 210 246 271 284 289 281 270 254 241 234 231 240 243 209 191 211 210 211 210 204 202 201 202 205 206 208 211 214 222 229 239 255 268 281 288 296 303 309 316 318 321 323 323 324 323 322 324 324 325 327 327 327 326 324 323 322 322 322 321 320 318 317 317 317 317 315
127 219 272 338 263 291 21 146 195 216 52 83 140 344 48 171 175 161 173 187 177 225 270 295 307 287 260 191 198 219 212 223 229 204 200 213 214 213 208 203 201 200 202 206 205 207 212 216 223 229 239 253 265 278 288 299 308 314 318 321 325 326 325 325 324 324 326 327 328 328 328 328 326 326 325 324 323 322 321 321 320 320 319 318 318 315
106 209 249 322 334 253 196 204 193 188 175 152 188 208 223 186 138 217 220 162 166 222 254 283 290 278 260 150 189 210 202 217 219 205 206 217 218 215 209 204 202 202 204 206 206 208 213 217 223 230 240 251 263 276 289 302 311 317 321 324 326 325 324 324 324 326 327 329 330 330 329 328 328 327 325 324 323 322 322 322 322 322 320 319 319 317
163 195 197 166 226 212 219 236 208 193 183 180 195 196 197 187 151 242 252 213 177 224 224 168 271 271 261 139 177 189 192 220 216 198 205 220 220 215 211 208 205 204 205 205 206 210 213 218 225 232 242 252 262 277 292 302 312 318 320 323 323 322 324 326 327 328 330 330 330 330 330 330 329 328 325 323 322 322 324 324 324 323 322 321 321 319
138 122 167 204 221 218 244 277 229 205 178 197 216 194 186 181 167 204 238 226 177 235 231 114 264 268 262 120 169 189 206 238 215 198 210 223 222 215 211 210 207 206 207 205 208 211 213 219 226 234 242 250 262 277 291 301 311 315 315 317 320 323 326 328 329 330 331 331 331 331 332 332 330 328 325 323 323 324 325 325 324 323 323 322 322 321
113 117 201 258 297 323 318 321 8 46 63 238 243 189 178 203 198 205 224 183 150 224 199 133 254 263 274 92 232 239 259 273 223 212 221 224 222 215 211 210 207 206 206 207 209 211 214 221 227 233 240 248 262 275 287 299 306 309 312 316 319 325 328 329 330 332 332 332 332 333 333 332 330 327 325 324 324 325 326 325 324 324 324 323 322 321
173 175 174 240 292 315 324 326 330 332 219 225 239 189 200 220 209 183 53 119 248 239 209 204 253 261 266 89 301 292 271 267 232 224 228 226 219 214 211 209 207 205 205 206 209 211 215 222 227 232 239 247 259 271 283 295 301 304 311 318 322 326 329 330 331 333 333 333 333 334 333 331 329 327 325 324 324 325 326 326 325 325 324 323 321 318
177 190 171 202 236 239 244 236 211 221 210 218 232 203 211 215 201 200 216 215 244 240 213 220 249 264 268 232 182 277 257 247 248 239 231 229 225 217 211 209 207 205 206 208 209 211 216 222 226 230 237 246 256 269 280 287 294 302 312 321 325 327 329 332 334 334 334 334 334 334 332 330 328 326 325 324 324 325 326 326 326 325 324 322 318 316
153 210 200 207 216 222 238 240 190 136 157 199 211 207 211 212 203 206 221 229 238 238 227 236 244 265 272 264 252 262 257 242 243 243 230 226 224 218 215 211 208 206 207 209 210 213 217 220 224 230 237 245 254 264 274 281 289 301 315 322 326 329 330 333 335 335 336 336 335 333 331 329 327 326 325 324 324 325 326 327 327 326 325 321 316 315
114 230 219 218 223 227 241 245 209 156 197 218 213 210 214 209 195 196 218 229 231 230 253 250 247 257 266 267 265 264 264 255 237 230 227 226 222 217 215 210 206 206 208 210 211 214 217 219 224 231 236 242 250 256 264 277 290 304 318 322 326 331 333 334 335 336 337 336 334 332 330 328 327 325 325 324 324 325 326 327 327 326 324 321 317 316
137 234 230 223 232 238 244 247 233 207 224 234 235 230 216 198 191 202 221 228 223 225 247 256 258 257 261 267 268 264 263 256 247 240 233 231 223 213 209 204 203 206 208 210 213 214 217 220 225 231 233 237 244 249 257 272 291 308 319 324 329 333 334 335 336 337 337 335 333 331 329 328 327 326 325 325 325 326 327 328 328 326 324 321 319 318
159 236 239 224 238 247 244 246 246 241 245 253 255 248 217 193 204 213 225 231 227 234 246 257 263 262 263 266 266 269 272 264 259 250 230 222 213 206 205 203 204 208 209 211 213 214 216 220 224 228 230 233 239 244 253 270 290 309 319 325 331 333 334 335 336 337 336 334 332 331 330 328 327 327 326 326 326 327 328 329 328 327 325 322 321 320
195 235 244 204 240 255 248 243 241 245 250 256 262 259 232 210 223 227 231 235 233 240 248 254 260 263 266 266 265 273 276 263 251 237 217 213 209 206 204 204 207 210 211 212 214 214 215 219 221 224 226 229 235 240 251 271 290 308 321 327 330 332 334 335 336 336 334 333 332 331 330 330 329 328 327 327 327 327 328 329 329 327 326 324 324 323
196 229 276 120 232 255 253 215 155 58 11 274 264 260 243 224 232 236 233 228 226 236 247 252 254 257 263 267 268 269 260 239 229 223 214 213 212 208 206 207 210 212 212 212 212 211 214 217 218 221 224 226 232 241 252 273 293 311 321 326 329 331 334 335 335 334 333 332 332 332 332 331 329 328 328 327 328 329 330 330 329 328 327 326 327 326
171 197 205 165 228 255 269 98 101 61 11 268 258 253 240 226 230 241 246 239 230 228 236 247 247 248 256 264 269 264 244 223 226 223 216 215 215 212 212 214 214 213 213 212 210 210 214 216 216 218 220 224 232 244 258 277 299 315 321 325 329 331 333 335 334 333 332 331 332 333 333 332 330 329 329 329 330 332 332 332 330 329 329 328 329 328
181 200 205 179 216 252 141 100 82 91 243 253 255 228 215 211 217 230 240 242 237 225 223 241 250 256 259 258 257 258 251 240 237 232 227 225 220 216 217 218 217 214 214 211 209 211 213 213 213 214 218 224 232 243 261 283 305 317 321 325 329 331 333 334 333 332 331 331 333 334 333 332 330 330 331 332 333 334 334 333 331 330 331 331 330 330
190 198 197 189 198 205 115 100 169 224 233 260 316 174 197 201 208 221 236 245 244 230 228 242 249 254 257 254 251 255 260 259 252 242 236 233 228 224 221 218 216 214 212 209 208 210 210 208 210 213 216 223 230 242 263 287 307 316 320 324 328 332 334 333 332 331 331 332 334 335 334 332 332 333 334 335 335 336 335 334 333 333 334 334 332 331
183 184 181 184 163 155 167 186 226 247 282 302 285 222 162 169 193 212 254 258 249 226 225 240 244 248 254 255 254 257 261 266 259 244 238 235 230 227 224 220 218 216 214 210 207 207 206 206 209 212 215 221 229 243 266 291 305 314 320 324 330 333 333 332 331 330 331 334 336 336 335 334 334 335 337 337 337 337 338 337 335 336 337 335 332 330
177 173 192 208 189 213 229 223 241 282 305 285 268 215 163 201 187 173 246 267 259 220 213 234 245 249 252 254 254 250 247 272 275 250 241 235 228 225 225 224 224 221 214 209 204 203 204 204 207 211 216 222 232 247 272 296 306 313 321 326 331 333 332 331 330 330 333 337 338 337 337 337 337 339 339 339 339 340 340 339 338 338 338 335 331 330
196 185 201 213 208 217 231 241 253 256 257 261 258 170 174 197 176 160 215 271 273 237 201 219 240 245 250 251 225 153 137 241 282 260 244 234 224 222 222 222 223 218 208 201 199 198 200 203 207 211 217 226 238 255 281 299 307 315 323 329 332 333 331 330 330 333 337 339 339 338 339 339 340 341 341 340 341 342 343 342 340 339 338 335 332 331
218 224 212 217 223 218 219 237 239 232 247 255 242 134 150 148 133 115 119 265 273 256 193 199 227 238 242 216 158 135 129 227 253 257 248 236 223 219 217 212 211 206 199 197 198 199 200 202 205 210 218 227 241 264 286 299 310 319 326 332 333 332 331 330 332 336 339 340 339 340 341 342 342 342 342 341 343 346 345 343 341 339 337 336 335 332
209 223 212 215 227 223 220 234 237 238 257 254 202 139 147 136 125 105 234 250 270 252 180 190 217 230 211 160 153 158 180 210 231 257 253 237 221 215 211 204 199 195 193 195 196 197 199 201 206 212 218 224 242 269 287 301 315 324 330 333 333 331 330 331 335 339 341 340 341 343 344 344 343 344 344 344 346 349 348 345 342 340 340 339 337 333
205 213 206 215 226 224 224 235 244 253 254 238 146 142 146 126 112 198 231 233 247 144 181 194 207 213 186 160 163 191 208 213 226 255 246 221 207 203 199 195 194 192 194 196 195 195 199 203 208 212 214 223 245 271 289 306 320 327 331 332 331 330 330 333 338 342 342 341 343 345 346 346 345 346 347 348 349 350 350 347 345 344 344 342 339 337
191 194 202 219 226 224 231 239 249 263 248 179 141 154 153 135 205 229 215 189 159 173 192 197 202 202 186 181 191 203 210 214 222 233 222 204 197 193 188 188 191 192 195 197 196 197 200 204 208 208 211 228 251 275 295 312 323 328 330 331 330 330 331 336 341 343 342 342 345 348 349 348 348 349 350 352 353 352 352 350 349 348 347 345 342 341
181 176 196 209 207 213 242 233 233 260 215 141 137 158 166 188 234 227 173 135 194 200 201 198 201 201 194 194 200 203 207 210 212 216 208 197 194 191 188 190 193 194 197 196 195 197 200 203 206 208 216 237 257 281 301 316 324 327 330 330 329 329 332 339 344 343 342 344 347 351 351 350 351 353 354 356 357 356 355 354 353 352 351 348 346 343
170 182 200 203 192 184 211 212 219 247 178 150 153 182 203 212 226 224 199 206 212 205 204 201 203 206 205 203 201 200 204 204 200 200 195 190 192 191 189 192 195 196 198 196 195 198 200 201 206 210 223 242 262 285 304 319 325 326 328 328 327 330 335 342 344 342 343 347 350 353 354 353 355 357 358 360 1 0 360 358 356 355 354 353 349 344
196 200 203 209 202 194 213 224 219 205 169 175 190 208 206 213 223 224 213 216 215 210 209 207 207 210 209 206 202 198 201 203 199 196 193 191 192 191 191 194 197 198 199 196 195 198 198 200 206 212 226 244 265 291 307 319 324 324 326 327 327 331 338 343 344 343 346 351 353 355 355 355 358 1 2 3 4 6 6 2 359 358 358 355 352 347
216 209 192 204 215 214 246 255 238 179 173 197 211 221 218 217 222 222 222 226 224 221 220 217 216 214 207 203 202 199 201 203 198 194 194 192 191 191 193 196 198 199 199 197 197 198 197 201 208 215 227 245 269 295 310 318 321 323 325 326 329 335 340 341 343 346 351 355 356 357 357 357 360 3 6 6 7 10 13 8 3 1 360 357 353 351
239 212 194 210 206 195 240 250 236 220 221 216 215 222 227 226 223 221 224 230 232 230 228 224 222 216 207 204 205 203 203 202 195 190 190 191 190 191 195 199 199 198 199 199 199 199 199 204 212 217 227 247 272 297 311 316 320 323 325 326 330 338 341 340 343 350 355 358 359 359 359 360 1 3 7 10 10 11 15 15 10 5 2 359 356 353
203 188 188 221 221 211 238 250 239 225 235 233 223 223 228 228 225 222 225 230 233 234 232 227 220 212 206 207 208 206 202 198 194 191 189 190 192 194 197 200 200 197 197 198 198 199 201 206 212 218 229 251 277 297 308 314 319 323 324 326 332 339 340 341 346 354 358 0 2 1 1 3 3 2 5 12 15 14 14 16 16 13 8 6 0 352
154 168 179 205 219 227 249 255 248 235 254 244 227 223 230 230 225 223 226 228 229 229 227 222 217 212 210 209 208 204 199 196 195 194 191 190 193 196 198 200 199 197 197 198 199 200 202 205 210 218 231 254 278 297 307 313 319 322 323 326 333 338 339 344 352 359 2 2 3 3 3 5 5 4 4 9 16 19 19 18 20 18 15 15 11 357
152 200 195 183 208 224 238 242 233 218 242 242 223 221 229 230 223 220 222 222 223 224 221 214 209 209 212 213 209 204 200 196 195 195 194 193 195 199 201 200 198 197 198 198 199 200 202 206 211 219 233 253 276 295 306 313 318 320 322 327 332 335 340 349 358 3 5 5 4 5 5 6 7 6 6 8 13 17 20 23 26 25 22 20 20 15
195 212 197 181 214 225 226 233 233 220 225 243 236 226 225 225 218 214 219 222 223 222 218 211 206 204 205 207 207 205 202 197 194 194 195 196 199 201 202 200 199 199 198 199 201 202 202 206 211 219 233 253 275 292 304 312 316 319 322 327 332 334 341 354 3 6 8 8 7 7 7 8 7 7 7 10 13 13 14 18 24 29 31 28 26 26